Tracking 19574 objects as of 16-Feb-2019
HD Live streaming from Space Station
objects crossing your sky now

EAGLESAT-1

Track EAGLESAT-1 now!
10-day predictions
EAGLESAT-1 is classified as:


NORAD ID: 43018
Int'l Code: 2017-073F
Perigee: 460.2 km
Apogee: 820.7 km
Inclination: 97.7 °
Period: 97.4 minutes
Semi major axis: 7011 km
RCS: Unknown
Launch date: November 18, 2017
Source: United States (US)
Launch site: AIR FORCE WESTERN TEST RANGE (AFWTR)

Uplink (MHz):
Downlink (MHz): 437.645
Beacon (MHz):
Mode: 1200bps AFSK
Call sign:
Status: Inactive

aabbcc
Your satellite tracking list
Your tracking list is empty




NASA's NSSDC Master Catalog

Two Line Element Set (TLE):
1 43018U 17073F   19047.51610083  .00000452  00000-0  40795-4 0  9999
2 43018  97.7206 333.7746 0257080 195.4682 163.8568 14.78751831 67071
Source of the keplerian elements: AFSPC